Home   Weather   Orenburg   Past weeks

Flag for Russia Past Weather in Orenburg, Russia — Yesterday and Last 2 Weeks

Now
72 °F

Sunny.


Feels Like: 76 °F
Forecast: 48 / 66 °F
Wind: 22 mph from Southeast

Location: Orenburg / Tsentralny

Current Time: Sep 25, 2016 at 1:55:51 PM

Latest Report: Sep 25, 2016 at 1:30 PM


Visibility: 10 mi

Pressure: 30.04 "Hg

Humidity: 25%

Dew Point: 34 °F

Location of OrenburgLocation

Past Weather in Orenburg — Graph

°F

Orenburg Temperature Yesterday

Maximum temperature yesterday: 73 °F (at 3:30 PM)
Minimum temperature yesterday: 54 °F (at 7:00 AM)
Average temperature yesterday: 64 °F

High & Low Weather Summary for the Past Weeks

 TemperatureHumidityPressure
High84 °F (Sep 22, 1:30 PM)100% (Sep 11, 7:00 AM)30.12 "Hg (Sep 11, 7:00 AM)
Low39 °F (Sep 11, 7:00 AM)22% (Sep 22, 3:00 PM)29.45 "Hg (Sep 14, 11:30 AM)
Average55 °F74%29.86 "Hg
* Reported Sep 10 12:00 PM — Sep 25 12:30 PM, Orenburg, Weather by CustomWeather, © 2016

Note: Actual official high and low records may vary slightly from our data, if they occured in-between our weather recording intervals... More about our weather records

Advertising

Orenburg Weather History for the Previous 24 Hours

Scroll right to see more
 ConditionsComfort  
Time TempWeatherWind HumidityBarometerVisibility
12:30 PM
Sun, Sep 25
68 °FSunny.20 mph30%30.07 "Hg10 mi
12:00 PM66 °FSunny.17 mph32%30.07 "Hg10 mi
11:30 AM66 °FSunny.15 mph32%30.07 "Hg10 mi
11:00 AM64 °FSunny.17 mph34%30.07 "Hg10 mi
10:30 AM63 °FSunny.15 mph39%30.07 "Hg10 mi
10:00 AM61 °FSunny.15 mph42%30.07 "Hg10 mi
9:30 AM59 °FSunny.20 mph48%30.07 "Hg10 mi
9:00 AM57 °FSunny.15 mph51%30.09 "Hg10 mi
8:30 AM54 °FSunny.15 mph58%30.09 "Hg10 mi
8:00 AM52 °FClear.13 mph67%30.09 "Hg10 mi
7:30 AM50 °FClear.10 mph71%30.07 "Hg10 mi
7:00 AM52 °FClear.8 mph67%30.09 "Hg10 mi
6:30 AM52 °FPassing clouds.10 mph62%30.09 "HgN/A
6:00 AM54 °FClear.10 mph58%30.07 "Hg10 mi
5:30 AM55 °FClear.13 mph55%30.07 "Hg10 mi
5:00 AM55 °FClear.13 mph59%30.07 "Hg10 mi
4:30 AM55 °FPassing clouds.10 mph59%30.07 "HgN/A
4:00 AM55 °FPassing clouds.10 mph59%30.07 "HgN/A
3:30 AM57 °FClear.10 mph55%30.07 "Hg10 mi
3:00 AM57 °FClear.10 mph55%30.07 "Hg10 mi
2:30 AM57 °FClear.13 mph55%30.07 "Hg10 mi
2:00 AM59 °FClear.13 mph51%30.07 "Hg10 mi
1:30 AM61 °FClear.13 mph48%30.07 "Hg10 mi
1:00 AM61 °FClear.13 mph48%30.07 "Hg10 mi
12:30 AM61 °FClear.15 mph48%30.07 "Hg10 mi
12:00 AM61 °FClear.15 mph45%30.07 "Hg10 mi
11:30 PM
Sat, Sep 24
61 °FClear.13 mph45%30.07 "Hg10 mi
11:00 PM61 °FClear.10 mph45%30.07 "Hg10 mi
10:30 PM61 °FClear.15 mph45%30.07 "Hg10 mi
10:00 PM61 °FClear.10 mph45%30.07 "Hg10 mi
9:30 PM61 °FClear.13 mph45%30.07 "Hg10 mi
9:00 PM63 °FClear.10 mph42%30.07 "Hg10 mi
8:30 PM63 °FClear.10 mph39%30.07 "Hg10 mi
8:00 PM63 °FSunny.10 mph39%30.07 "Hg10 mi
7:30 PM66 °FSunny.17 mph35%30.07 "Hg10 mi
7:00 PM68 °FSunny.17 mph33%30.04 "Hg10 mi
6:30 PM70 °FSunny.20 mph31%30.04 "Hg10 mi
6:00 PM70 °FSunny.20 mph31%30.04 "Hg10 mi
5:30 PM72 °FSunny.20 mph29%30.04 "Hg10 mi
5:00 PM72 °FSunny.22 mph27%30.07 "Hg10 mi
4:30 PM72 °FSunny.20 mph27%30.07 "Hg10 mi
4:00 PM72 °FSunny.20 mph27%30.07 "Hg10 mi
3:30 PM73 °FSunny.17 mph25%30.07 "Hg10 mi
3:00 PM72 °FPassing clouds.17 mph27%30.07 "HgN/A
2:30 PM72 °FSunny.17 mph27%30.07 "Hg10 mi
2:00 PM72 °FSunny.20 mph25%30.07 "Hg10 mi
1:30 PM72 °FSunny.22 mph27%30.09 "Hg10 mi
1:00 PM72 °FSunny.20 mph25%30.09 "Hg10 mi
Weather by CustomWeather, © 2016

See weather overviewHow to use our weather pages